#timestamp,LO_Frequency,Hit,StdDev 
1630342815.4,286047003.6,N
1630342835.2,286047004.3,N
1630342855.0,286047006.0,Y
1630342855.9,286047006.0,P
1630342875.8,286047001.0,N
1630342895.6,286047001.1,N
1630342915.5,286047001.2,N
1630342935.3,286046998.6,N
1630342955.1,286047001.2,N
1630342975.9,286047000.3,N
1630342995.7,286047002.1,N
1630343015.5,286047002.2,N
1630343035.4,286047000.0,N
1630343055.2,286047000.0,N
1630343075.0,286047000.5,N
1630343076.0,286047000.5,N
1630343095.8,286047001.0,N
1630343115.6,286047001.1,N
1630343135.5,286047001.0,N
1630343155.3,286047002.8,N
1630343175.1,286047001.8,N
1630343195.9,286047002.0,N
1630343215.7,286047001.6,N
1630343235.6,286047004.2,N
1630343255.4,286047002.4,N
1630343275.2,286047004.0,N
1630343295.1,286047002.1,N
1630343296.0,286047002.1,N
1630343315.8,286047002.8,N
1630343335.6,286047002.2,N
1630343355.5,286046999.8,N
1630343375.3,286047001.6,N
1630343395.2,286047001.4,N
1630343415.9,286047004.2,N
1630343435.7,286047003.5,N
1630343455.6,286047005.6,Y
1630343475.4,286046999.7,P
1630343495.2,286047000.4,N
1630343515.1,286046998.2,N
1630343516.0,286046998.2,N
1630343535.8,286046998.1,N
1630343555.7,286047000.2,N
1630343575.5,286046999.7,N
1630343595.3,286047002.6,N
1630343615.2,286046999.9,N
1630343635.0,286047002.0,N
1630343635.9,286047002.0,N
1630343655.7,286047001.3,N
1630343675.6,286047002.7,N
1630343695.4,286047001.5,N
1630343715.3,286047002.0,N
1630343735.1,286047002.6,N
1630343736.0,286047002.6,N
1630343755.8,286047002.1,N
1630343775.7,286047001.5,N
1630343795.5,286047002.0,N
1630343815.3,286047001.7,N
1630343835.2,286047004.0,N
1630343855.0,286047003.6,N
1630343855.9,286047003.6,N
1630343875.8,286047003.6,N
1630343895.6,286047003.0,N
1630343915.4,286047005.6,Y
1630343935.3,286047003.8,P
1630343955.1,286047001.3,N
1630343975.9,286047001.8,N
1630343995.7,286047001.5,N
1630344015.5,286047004.4,Y
1630344035.4,286047000.9,P
1630344055.2,286047000.7,N
1630344075.0,286047000.5,N
1630344075.9,286047000.5,N
1630344095.8,286046998.1,Y
1630344115.6,286046998.4,P
1630344135.5,286046999.6,N
1630344155.3,286046998.7,N
1630344175.1,286046999.3,N
1630344195.9,286046998.6,N
1630344215.7,286046998.8,N
1630344235.5,286046999.2,N
1630344255.4,286046998.3,N
1630344275.2,286047000.9,N
1630344295.1,286047000.8,N
1630344296.0,286047000.8,N
1630344315.8,286046998.3,N
1630344335.6,286046998.8,N
1630344355.5,286046999.2,N
1630344375.3,286046999.0,N
1630344395.1,286046998.9,N
1630344415.9,286046999.5,N
1630344435.7,286046999.0,N
1630344455.6,286046999.0,N
1630344475.4,286046998.2,N
1630344495.2,286047001.1,N
1630344515.1,286046998.6,N
1630344516.0,286046998.6,N
1630344535.8,286047000.9,N
1630344555.7,286047001.2,N
1630344575.5,286047000.9,N
1630344595.3,286047000.2,N
1630344615.2,286046999.8,N
1630344635.0,286047000.2,N
1630344635.9,286047000.2,N
1630344655.7,286047000.2,N
1630344675.6,286047000.3,N
1630344695.4,286046999.0,N
1630344715.3,286047001.2,N
1630344735.1,286047000.7,N
1630344736.0,286047000.7,N
1630344755.8,286046998.5,N
1630344775.7,286046998.8,N
1630344795.5,286046998.7,N
1630344815.4,286046998.6,N
1630344835.2,286046998.2,N
1630344855.0,286046999.0,N
1630344855.9,286046999.0,N
1630344875.8,286046999.4,N
1630344895.6,286046996.6,Y
1630344915.5,286046999.4,P
1630344935.3,286046998.9,P
1630344955.1,286046998.8,P
1630344975.9,286046998.3,Y
1630344995.7,286047001.1,P
1630345015.5,286047000.5,N
1630345035.4,286046998.2,N
1630345055.2,286046998.6,N
1630345075.1,286046998.5,N
1630345076.0,286046998.5,N
1630345095.8,286046999.9,N
1630345115.6,286047000.6,N
1630345135.5,286047001.1,N
1630345155.3,286047000.9,N
1630345175.2,286047001.2,N
1630345195.9,286047001.0,N
1630345215.7,286047001.2,N
1630345235.6,286046998.8,N
1630345255.4,286046998.6,N
1630345275.2,286047001.1,N
1630345295.1,286047000.5,N
1630345296.0,286047000.5,N
1630345315.8,286047002.6,N
1630345335.7,286047002.2,N
1630345355.5,286047002.8,N
1630345375.3,286047002.4,N
1630345395.2,286047000.4,N
1630345415.0,286047000.8,N
1630345415.9,286047000.8,N
1630345435.7,286046999.2,N
1630345455.6,286046996.9,N
1630345475.4,286046997.5,N
1630345495.3,286046998.0,N
1630345515.1,286046999.2,N
1630345516.0,286046999.2,N
1630345535.8,286046999.3,N
1630345555.7,286046998.4,N
1630345575.5,286046999.4,N
1630345595.3,286046999.1,N
1630345615.2,286046999.3,N
1630345635.0,286046999.6,N
1630345635.9,286046999.6,N
1630345655.8,286046999.5,N
1630345675.6,286046999.4,N
1630345695.4,286046998.2,N
1630345715.3,286046999.4,N
1630345735.1,286047001.2,N
1630345755.8,286047000.7,N
1630345775.7,286046996.6,N
1630345795.5,286046999.3,N
1630345815.4,286046998.5,N
1630345835.2,286046999.4,N
1630345855.0,286046999.5,N
1630345855.9,286046999.5,N
1630345875.8,286046999.6,N
1630345895.6,286046996.6,N
1630345915.5,286046996.5,Y
1630345935.3,286046998.6,P
1630345955.1,286046998.1,P
1630345975.9,286047000.7,N
1630345995.7,286047000.7,N
1630346015.5,286046998.8,N
1630346035.4,286046998.2,N
1630346055.2,286046998.3,N
1630346075.0,286046999.2,N
1630346076.0,286046999.2,N
1630346095.8,286046997.2,Y
1630346115.6,286046997.2,P
1630346135.5,286046998.1,N
1630346155.3,286047001.1,N
1630346175.1,286046998.5,N
1630346195.9,286046998.7,N
1630346215.7,286046998.8,N
1630346235.5,286046999.2,N
1630346255.4,286047000.5,N
1630346275.2,286047001.2,N
1630346295.1,286047000.5,N
1630346296.0,286047000.5,N
1630346315.8,286047000.2,N
1630346335.6,286047002.4,N
1630346355.5,286047000.2,N
1630346375.3,286047000.9,N
1630346395.2,286047002.8,N
